FW2487 Weather Reports


time (UTC)temp
C
wind
direction
speed
KPH
gust
KPH
rain 1hr
cm
rain 24hr
cm
rain mn
cm
humidity
%
barometer
mb
20260509171611 16 313 4.8 11.3 0.00 0.00 0.00 53 1021.2
20260509163036 16 329 1.6 6.4 0.00 0.00 0.00 50 1021.4
20260509161534 15 357 1.6 4.8 0.00 0.00 0.00 54 1021.5
20260509160035 14 355 0.0 6.4 0.00 0.00 0.00 58 1021.5
20260509154535 13 66 0.0 4.8 0.00 0.00 0.00 59 1021.7
20260509153036 12 270 0.0 3.2 0.00 0.00 0.00 62 1021.7
20260509151533 11 223 0.0 3.2 0.00 0.00 0.00 68 1021.7
20260509144533 8 120 0.0 1.6 0.00 0.00 0.00 80 1021.7
20260509141537 5 202 0.0 0.0 0.00 0.00 0.00 89 1021.7
20260509134534 2 194 0.0 3.2 0.00 0.00 0.00 90 1021.4
20260509131535 2 123 3.2 8.0 0.00 0.00 0.00 90 1021.2
20260509123031 3 194 1.6 9.7 0.00 0.00 0.00 90 1020.9
20260509121535 2 161 4.8 8.0 0.00 0.00 0.00 89 1020.9
20260509120031 2 146 3.2 6.4 0.00 0.00 0.00 89 1020.9
20260509114606 3 150 3.2 6.4 0.00 0.00 0.00 89 1020.7
20260509113032 3 166 3.2 6.4 0.00 0.00 0.00 88 1020.8
20260509111533 3 177 0.0 3.2 0.00 0.00 0.00 88 1020.9
20260509110035 4 172 3.2 6.4 0.00 0.00 0.00 87 1020.9
20260509104643 5 160 3.2 9.7 0.00 0.00 0.00 86 1020.9
20260509101535 6 207 3.2 11.3 0.00 0.00 0.00 82 1021.2
20260509094534 5 168 3.2 9.7 0.00 0.00 0.00 85 1021.2
20260509093109 6 162 3.2 8.0 0.00 0.00 0.00 84 1021.4
20260509091642 6 62 3.2 8.0 0.00 0.00 0.00 83 1021.5
20260509090036 7 20 1.6 8.0 0.00 0.00 0.00 81 1021.6
20260509084609 7 136 3.2 9.7 0.00 0.00 0.00 80 1021.8
20260509083038 7 178 4.8 9.7 0.00 0.00 0.00 80 1022.0
20260509081536 8 163 1.6 6.4 0.00 0.00 0.00 78 1022.2
20260509080035 8 169 6.4 9.7 0.00 0.00 0.00 78 1022.3
20260509074533 8 164 4.8 14.5 0.00 0.00 0.00 78 1022.4
20260509073036 8 129 3.2 9.7 0.00 0.00 0.00 78 1022.5
20260509071536 8 183 8.0 11.3 0.00 0.00 0.00 78 1022.5
20260509070036 9 206 4.8 8.0 0.00 0.00 0.00 75 1022.6
20260509064533 12 201 3.2 6.4 0.00 0.00 0.00 66 1022.7
20260509061534 12 265 3.2 8.0 0.00 0.00 0.00 65 1022.7
20260509060036 12 181 1.6 8.0 0.00 0.00 0.00 67 1022.8
20260509054535 11 93 3.2 9.7 0.00 0.00 0.00 67 1022.6
20260509051534 11 212 0.0 6.4 0.00 0.00 0.00 67 1022.5
20260509050111 11 235 0.0 9.7 0.00 0.00 0.00 66 1022.4
20260509044534 12 231 3.2 11.3 0.00 0.00 0.00 65 1022.4
20260509041531 12 227 4.8 14.5 0.00 0.00 0.00 63 1022.1
20260509040032 12 232 4.8 14.5 0.00 0.00 0.00 62 1021.9
20260509034607 13 240 4.8 14.5 0.00 0.00 0.00 61 1021.7
20260509031535 13 246 6.4 17.7 0.00 0.00 0.00 58 1021.3
20260509030033 14 251 4.8 14.5 0.00 0.00 0.00 57 1021.2
20260509024530 15 258 11.3 24.1 0.00 0.00 0.00 55 1021.1
20260509023110 15 268 11.3 20.9 0.00 0.00 0.00 53 1021.0
20260509021533 16 265 11.3 19.3 0.00 0.00 0.00 51 1020.9
20260509020034 16 260 14.5 25.7 0.00 0.00 0.00 49 1020.8
20260509014534 17 254 12.9 27.4 0.00 0.00 0.00 46 1020.7
20260509011536 17 260 16.1 32.2 0.00 0.00 0.00 44 1020.7
20260509010034 17 258 16.1 29.0 0.00 0.00 0.00 43 1020.6
20260509004641 18 275 16.1 35.4 0.00 0.00 0.00 42 1020.5
20260509003142 18 274 12.9 25.7 0.00 0.00 0.00 40 1020.3
20260509001537 19 267 14.5 29.0 0.00 0.00 0.00 37 1019.9
20260508234532 19 256 9.7 25.7 0.00 0.00 0.00 37 1019.9
20260508231536 18 269 12.9 35.4 0.00 0.00 0.00 36 1019.8
20260508230036 18 278 17.7 32.2 0.00 0.00 0.00 36 1019.6
20260508224533 19 267 14.5 30.6 0.00 0.00 0.00 34 1019.6
20260508223110 20 275 14.5 29.0 0.00 0.00 0.00 33 1019.5
20260508221537 19 260 17.7 37.0 0.00 0.00 0.00 31 1019.5
20260508220033 19 270 14.5 33.8 0.00 0.00 0.00 31 1019.5
20260508214607 19 245 14.5 33.8 0.00 0.00 0.00 29 1019.6
20260508211534 19 247 12.9 27.4 0.00 0.00 0.00 30 1019.6
20260508210142 18 261 17.7 35.4 0.00 0.00 0.00 32 1019.5
20260508203037 18 260 12.9 32.2 0.00 0.00 0.00 33 1019.6
20260508201536 18 270 9.7 25.7 0.00 0.00 0.00 35 1019.5
20260508200034 18 275 11.3 35.4 0.00 0.00 0.00 35 1019.4
20260508194534 17 276 14.5 30.6 0.00 0.00 0.00 38 1019.4
20260508193037 17 276 16.1 32.2 0.00 0.00 0.00 39 1019.3
20260508191534 17 282 19.3 33.8 0.00 0.00 0.00 39 1019.3
20260508183035 16 287 14.5 35.4 0.00 0.00 0.00 42 1019.2
20260508181607 13 28 3.2 9.7 0.00 0.00 0.00 59 1019.1
20260508180035 12 195 0.0 4.8 0.00 0.00 0.00 63 1019.1
20260508174535 12 245 3.2 8.0 0.00 0.00 0.00 65 1019.2